www.pogodaiklimat.ru

Погода и климат >> Архив погоды >> Пакистан >> Nawabshah


ПОГОДА в Nawabshah

  • Прогноз погоды в Nawabshah
  • Монитор погоды в Nawabshah
  • Климат города

АРХИВ ПОГОДЫ в Nawabshah

Время (UTC), дата Ветер
(напр.,м/с)
 
Видим.   Явления Облачность Т
(С)
Тd
(С)
f
(%)
Тe
(С)
Тes
(С)
Комфортность P
(гПа)
Po
(гПа)
Тmin
(С)
Tmax
(С)
R
(мм)
R24
(мм)
S
(см)
03 14.06 Ю 5 2000 м пыль ясно +32.5 +18.9 45 +38 +41 очень
душно
993.4 990.3 +29.1
06 14.06 Ю 10 1000 м пыльный позёмок ясно +38.0 +20.4 36 +44 +45 опасность
перегрева
994.6 991.4
09 14.06 Ю 10 1000 м пыльный позёмок ясно +42.5 +21.9 31 +50 +50 опасность
перегрева
992.7 993.0
12 14.06 Ю 10 1000 м пыльный позёмок ясно +42.0 +22.1 32 +49 +50 опасность
перегрева
991.6 988.7 +43.5
15 14.06 Ю 9 1000 м пыльный позёмок ясно +36.0 +20.6 41 +43 +43 опасность
перегрева
992.7 993.0
18 14.06 Ю 10 2000 м пыльный позёмок ясно +32.0 +18.2 44 +37 +37 очень
душно
994.2 991.1
21 14.06 Ю 9 2000 м пыльный позёмок ясно +29.0 +17.2 49 +33 +33 очень
душно
993.3 993.0
00 15.06 Ю 8 2000 м пыльный позёмок ясно +28.0 +16.9 51 +32 +32 душно 992.4 989.2
03 15.06 Ю 7 2000 м пыльный позёмок ясно +31.0 +18.8 48 +36 +37 очень
душно
993.2 990.1 +27.0
06 15.06 Ю 6 2000 м мгла ясно +39.0 +23.5 41 +49 +56 опасность
перегрева
995.7 992.4
09 15.06 0 мгла н/о +22.5 993.6 1000.0
12 15.06 Ю 7 2000 м пыльный позёмок ясно +42.0 +22.1 32 +49 +51 опасность
перегрева
992.1 988.8 +45.5
15 15.06 Ю 7 2000 м пыльный позёмок ясно +36.0 +21.5 43 +44 +44 опасность
перегрева
993.6 994.0
18 15.06 ЮЗ 7 2000 м пыльный позёмок ясно +33.0 +11.8 27 +40 +40 очень
душно
889.7 991.9
21 15.06 штиль 0 2000 м 5/5 1500 м
[Sc]
+26.5 +6.5 28 +26 +26 жарко 837.3 837.0
00 16.06 Ю 3 2000 м мгла ясно +28.0 +18.8 57 +33 +33 очень
душно
993.0 887.6
03 16.06 Ю 6 2000 м мгла ясно +31.0 +19.7 51 +37 +39 очень
душно
1021.1 990.8 +27.5
06 16.06 ЮЗ 6 4000 м мгла ясно +39.0 +21.8 37 +46 +54 опасность
перегрева
996.5 993.4
09 16.06 ЮЗ 6 4000 м мгла ясно +43.0 +19.6 26 +47 +55 опасность
перегрева
994.7 995.0
12 16.06 Ю 7 2000 м мгла ясно +43.0 +20.6 28 +49 +50 опасность
перегрева
993.0 990.0 +45.0
15 16.06 Ю 7 2000 м мгла ясно +37.0 +22.8 44 +46 +46 опасность
перегрева
994.3 994.0
18 16.06 Ю 6 2000 м мгла ясно +32.0 +22.6 58 +42 +42 опасность
перегрева
996.3 993.1
21 16.06 Ю 3 2000 м мгла ясно +30.0 +22.0 62 +39 +39 очень
душно
995.3 1000.0
00 17.06 Ю 3 2000 м мгла ясно +29.0 +21.6 64 +37 +37 очень
душно
994.1 990.9
03 17.06 Ю 5 4000 м мгла ясно +32.0 +21.8 55 +41 +43 опасность
перегрева
995.4 992.2 +28.0
06 17.06 Ю 7 4000 м мгла ясно +38.0 +23.1 43 +48 +53 опасность
перегрева
996.5 993.4
09 17.06 Ю 3 4000 м мгла ясно +43.0 +21.6 30 +50 +66 опасность
перегрева
994.7 1000.0
12 17.06 Ю 4 4000 м мгла 4/0
[Ac trans]
+43.0 +23.5 33 +52 +55 опасность
перегрева
992.7 1002.4 +44.1
15 17.06 Ю 1 4000 м мгла 6/4 300 м
[Sc Ac trans]
+37.0 +24.4 49 +49 +49 опасность
перегрева
990.7 1000.0
18 17.06 Ю 4 4000 м мгла 4/0
[Ac trans]
+33.0 +23.8 59 +45 +45 опасность
перегрева
995.3 992.1
21 17.06 Ю 3 4000 м мгла ясно +30.5 +23.3 65 +41 +41 опасность
перегрева
994.1 989.3
00 18.06 Ю 2 4000 м мгла ясно +29.0 +24.0 74 +40 +40 очень
душно
993.2 990.0
03 18.06 Ю 3 4000 м мгла 3/0
[Ac trans]
+31.0 +24.6 69 +44 +48 опасность
перегрева
995.8 992.6 +28.0
06 18.06 ЮЗ 3 4000 м мгла ясно +38.0 +24.0 45 +49 +65 опасность
перегрева
997.4 994.3
09 18.06 З 5 4000 м мгла 3/3 1050 м
[Sc]
+42.0 +24.8 38 +54 +61 опасность
перегрева
996.1 996.0
12 18.06 ЮЗ 4 4000 м мгла ясно +42.0 +24.8 38 +54 +57 опасность
перегрева
994.8 991.8 +43.0
15 18.06 ЮЗ 9 500 м пыльный позёмок {метель} 9/5 1050 м
[Sc Ac trans]
+33.0 +17.6 40 +37 +37 очень
душно
997.5 998.0
18 18.06 ЮВ 4 2000 м мгла {гроза, метель} 9/5 1050 м
[Sc Ac trans]
+33.0 +16.6 38 +36 +36 очень
душно
997.9 994.7
21 18.06 Ю 2 4000 м мгла 9/5 300 м
[Sc Ac trans]
+31.0 +17.9 46 +35 +35 очень
душно
995.9 1000.0
00 19.06 штиль 0 4000 м мгла 6/4 300 м
[Sc Ac trans]
+29.0 +19.1 55 +34 +34 очень
душно
994.6 991.4
03 19.06 Ю 5 4000 м 4/0
[Ac trans]
+31.0 +19.7 51 +37 +39 очень
душно
998.0 994.8 +28.0
06 19.06 ЮЗ 3 4000 м ясно +37.0 +21.0 40 +44 +60 опасность
перегрева
999.4 996.8
09 19.06 Ю 3 4000 м ясно +41.5 +20.5 30 +47 +64 опасность
перегрева
997.5 1000.0
12 19.06 ЮЗ 1 4000 м ясно +42.0 +22.1 32 +49 +56 опасность
перегрева
997.5 992.4 +43.1
15 19.06 ЮВ 4 4000 м ясно +38.0 +21.4 38 +45 +45 опасность
перегрева
996.4 996.0
18 19.06 ЮЗ 2 4000 м мгла ясно +33.5 +19.2 43 +39 +39 очень
душно
997.3 994.5
21 19.06 ЮВ 1 4000 м мгла ясно +30.0 +18.5 50 +35 +35 очень
душно
996.6 1000.0
00 20.06 Ю 1 4000 м мгла ясно +28.0 +17.9 54 +32 +32 душно 995.6 992.4
03 20.06 штиль 0 4000 м мгла ясно +31.0 +18.8 48 +36 +44 очень
душно
997.1 993.9 +27.1
06 20.06 ЮВ 3 4000 м ясно +37.0 +21.0 40 +44 +60 опасность
перегрева
999.3 996.2
09 20.06 ЮВ 3 4000 м ясно +42.0 +20.2 29 +47 +63 опасность
перегрева
997.0 997.0
12 20.06 ЮВ 2 4000 м мгла ясно +42.5 +19.9 28 +48 +53 опасность
перегрева
995.4 992.4 +43.5
15 20.06 ЮВ 3 4000 м мгла ясно +38.0 +21.4 38 +45 +45 опасность
перегрева
996.6 997.0
18 20.06 Ю 4 4000 м мгла ясно +34.0 +21.6 48 +42 +42 опасность
перегрева
997.9 994.7

 

Местоположение метеостанции Nawabshah (Пакистан): широта 26.25 долгота 68.37 высота над уровнем моря 38 м.

В архиве по умолчанию представлена погода в Nawabshah за последнюю неделю. Архивные данные за месяц целиком и за предыдущие месяцы, начиная с января 2011 года, Вы можете получить, выбрав интересующий диапазон дат из раскрывающегося списка и нажав кнопку "Ввод!".


*Определитесь, кто Вы:
робот инопланетянин человек

Внимание! Время в таблицах - всемирное. Для получения местного времени необходимо прибавить поправку, которая в Nawabshah равна 5 ч.

Смотрите также архив погоды в соседних городах и на ближайших метеорологических станциях:

Погода в Pad Idan (Пакистан) (71 км)
Погода в Hyderabad (Пакистан) (97 км)
Погода в Sakrand (Пакистан) (125 км)
Погода в Chhor (Пакистан) (163 км)
Погода в Rohri (Пакистан) (166 км)
Погода в Badin (Пакистан) (188 км)
Погода в Karachi (Пакистан) (195 км)
Погода в Jacobabad (Пакистан) (228 км)
Погода в Khuzdar (Пакистан) (246 км)
Погода в Jaisalmer (Rajasthan, Индия) (264 км)

Пояснения к столбцам:

Ветер - указаны скорость ветра в м/с - средняя за 10 мин, порывы в срок и между сроками (в фигурных скобках) и направление, откуда дует ветер: С - северный, СВ - северо-восточный, В - восточный, ЮВ - юго-восточный, Ю - южный, ЮЗ - юго-западный, З - западный, СЗ - северо-западный.
Видимость - горизонтальная дальность видимости в метрах или километрах. При видимости от 1 до 10 км при отсутствии осадков обычно наблюдается дымка, при ухудшении видимости до 1 км и менее - туман. В сухую погоду видимость может ухудшаться дымом, пылью или мглою.
Явления - указаны атмосферные явления, наблюдавшиеся в срок или в последний час перед сроком; фигурными скобками обозначены явления, наблюдавшиеся между сроками (за 1-3 часа до срока); квадратными скобками обозначены град или гололедные отложения с указанием их диаметра в мм.
Облачность - указаны через наклонную черту общая и нижняя облачность в баллах и высота нижней границы облаков в метрах; квадратными скобками обозначены формы облаков: Ci - перистые, Cs - перисто-слоистые, Cc - перисто-кучевые, Ac - высококучевые, As - высокослоистые, Sc - слоисто-кучевые, Ns - слоисто-дождевые, Cu - кучевые, Cb - кучево-дождевые. Подробнее классификацию облаков см. в Атласе облаков (PDF).
T - Температура воздуха - температура, измеренная на высоте 2 м над землей.
Td - Температура точки росы - температура, при понижении до которой содержащийся в воздухе водяной пар достигнет насыщения.
f - Относительная влажность воздуха - влажноcть воздуха, измеренная на высоте 2 м над землей.
Te - Эффективная температура - температура, которую ощущает одетый по сезону человек в тени. Характеристика душности погоды. При расчете учитывается влияние влажности воздуха и скорости ветра на теплоощущения человека.
Tes - Эффективная температура на солнце - температура, которую ощущает человек, с поправкой на солнечный нагрев. Характеристика знойности погоды. Зависит от высоты солнца над горизонтом, облачности и скорости ветра. Ночью, в пасмурную погоду, а также при ветре 12 м/с и более поправка равна нулю.
P - Атмосферное давление - приведенное к уровню моря атмосферное давление.
Po - Атмосферное давление - измеренное на уровне метеостанции атмосферное давление.
Tmin - Минимальная температура - минимум температуры воздуха на высоте 2 м над землей.
Tmax - Максимальная температура - максимум температуры воздуха на высоте 2 м над землей.
R - Количество осадков - Количество выпавших осадков за период времени, мм. При наведении курсора мыши на число - период времени, за который выпало указанное количество осадков.
R24 - Количество осадков - Количество выпавших осадков за 24 часа, мм.
S - Снежный покров - Высота снежного покрова, см. При наведении курсора мыши на число - состояние снежного покрова и степень покрытия местности в баллах.